Location: Unspecified
(47.2333°N, 39.7000°E)
Time: 23:38:02
(UTC+00:00)

ISS - Pass Details

Date: 10 July 2022
Orbit: 412 x 420 km, 51.6° (Epoch: 17 August)

Event Time Altitude Azimuth Distance (km) Brightness Sun altitude
Exits shadow 20:33:56 86° 177° (S) 422 -3.9 -19.6°
Maximum altitude 20:33:57 87° 154° (SSE) 422 -3.9 -19.6°
Drops below altitude 10° 20:37:19 10° 66° (ENE) 1,498 -0.8 -19.7°
Sets 20:39:26 0° 66° (ENE) 2,366 0.2 -19.8°
